This demonstration page uses our WeatherBlox Daily Observations layout. Learn more.

Left ArrowRight Arrow

Hourly Observations for August 23, 2021

Temp ( °F °C ) Dew Point ( °F °C ) Humidity (%) Winds ( mph kmh ) Pressure ( in mb ) Visibility ( mi km ) Precip ( " mm )
12:54 am 00:54 Clear 84 28.9 73 22.8 70 70 SSW 14 22 29.80 1009 10 16 0.00 0.00
1:54 am 01:54 Mostly Clear with Light Rain 83 28.3 73 22.8 72 72 WSW 6 9 29.78 1009 10 16 0.00 0.00
2:54 am 02:54 Clear 81 27.2 64 17.8 57 57 NNW 10 17 29.79 1009 10 16 0.00 0.00
3:54 am 03:54 Clear 75 23.9 65 18.3 71 71 NNE 5 7 29.80 1009 10 16 0.00 0.00
4:54 am 04:54 Clear 73 22.8 64 17.8 74 74 ENE 6 9 29.80 1009 10 16 0.00 0.00
5:54 am 05:54 Clear 76 24.4 63 17.2 64 64 E 8 13 29.80 1009 10 16 0.00 0.00
6:54 am 06:54 Sunny 73 22.8 63 17.2 71 71 NE 3 6 29.81 1010 10 16 0.00 0.00
7:54 am 07:54 Sunny 72 22.2 65 18.3 79 79 Calm 29.83 1010 10 16 0.00 0.00
8:54 am 08:54 Sunny 76 24.4 66 18.9 72 72 N 5 7 29.85 1011 10 16 0.00 0.00
9:54 am 09:54 Sunny 82 27.8 68 20 63 63 E 3 6 29.84 1010 10 16 0.00 0.00
10:54 am 10:54 Sunny 86 30 70 21.1 59 59 ESE 5 7 29.84 1011 10 16 0.00 0.00
11:54 am 11:54 Sunny 88 31.1 71 21.7 57 57 SSE 9 15 29.85 1011 10 16 0.00 0.00
12:54 pm 12:54 Sunny 91 32.8 72 22.2 54 54 S 9 15 29.83 1010 10 16 0.00 0.00
1:54 pm 13:54 Sunny 92 33.3 71 21.7 51 51 S 14 22 29.80 1009 10 16 0.00 0.00
2:54 pm 14:54 Sunny 95 35 69 20.6 43 43 SSE 10 17 29.79 1009 10 16 0.00 0.00
3:54 pm 15:54 Sunny 97 36.1 71 21.7 43 43 SSE 18 30 29.77 1008 10 16 0.00 0.00
4:54 pm 16:54 Sunny 98 36.7 71 21.7 42 42 SSE 15 24 29.76 1008 10 16 0.00 0.00
5:54 pm 17:54 Sunny 97 36.1 71 21.7 43 43 S 16 26 29.75 1008 10 16 0.00 0.00
6:54 pm 18:54 Sunny 94 34.4 69 20.6 44 44 S 12 19 29.75 1008 10 16 0.00 0.00
7:54 pm 19:54 Sunny 92 33.3 68 20 46 46 SSE 13 20 29.76 1008 10 16 0.00 0.00
8:54 pm 20:54 Clear 88 31.1 69 20.6 54 54 SSE 10 17 29.79 1009 10 16 0.00 0.00
9:54 pm 21:54 Clear 86 30 69 20.6 57 57 SSE 13 20 29.80 1009 10 16 0.00 0.00
10:54 pm 22:54 Clear 84 28.9 69 20.6 61 61 SSE 15 24 29.80 1009 10 16 0.00 0.00
11:54 pm 23:54 Clear 81 27.2 69 20.6 67 67 S 12 19 29.80 1009 10 16 0.00 0.00

Powered by AerisWeather